Location: Unspecified
(0.0000°N, 0.0000°E)
Time: 10:10:46
(UTC+00:00)

Vanguard 3 - Pass Details

Date: 03 October 2023
Orbit: 507 x 3241 km, 33.3° (Epoch: 06 December)

Event Time Altitude Azimuth Distance (km) Brightness Sun altitude
Rises 23:57:34 0° 329° (NNW) 3,002 - -85.7°
Reaches altitude 10° 00:00:56 10° 352° (N) 1,848 - -85.2°
Maximum altitude 00:03:21 15° 30° (NNE) 1,439 - -84.8°
Drops below altitude 10° 00:05:36 10° 69° (ENE) 1,705 - -84.4°
Sets 00:08:29 0° 94° (E) 2,635 - -83.9°
